�������l�o���
Date,Time,MP-1(��Sv/h),MP-2(��Sv/h),MP-3(��Sv/h),MP-4(��Sv/h),MP-5(��Sv/h),MP-6(��Sv/h),MP-7(��Sv/h),MP-8(��Sv/h),����,����(m/s),���J
2020/01/16,00:00,0.687,0.977,0.647,1.224,0.860,0.395,0.697,0.661,���k��,6.9,��
2020/01/16,00:10,0.686,0.977,0.649,1.223,0.859,0.396,0.695,0.663,���k��,7.1,��
2020/01/16,00:20,0.687,0.977,0.648,1.224,0.861,0.396,0.696,0.664,���k��,6.6,��
2020/01/16,00:30,0.687,0.976,0.649,1.224,0.860,0.397,0.696,0.661,��,8.2,��
2020/01/16,00:40,0.685,0.978,0.648,1.225,0.858,0.396,0.697,0.664,���k��,10.8,��
2020/01/16,00:50,0.688,0.978,0.647,1.225,0.859,0.397,0.697,0.663,���k��,11.9,��
2020/01/16,01:00,0.687,0.977,0.648,1.224,0.862,0.395,0.696,0.663,��,9.9,��
2020/01/16,01:10,0.686,0.979,0.646,1.225,0.857,0.396,0.697,0.662,���k��,9.1,��
2020/01/16,01:20,0.688,0.977,0.647,1.224,0.859,0.397,0.697,0.662,���k��,9.3,��
2020/01/16,01:30,0.687,0.978,0.646,1.223,0.861,0.396,0.696,0.663,���k��,8.2,��
2020/01/16,01:40,0.687,0.977,0.647,1.223,0.859,0.396,0.696,0.664,���k��,7.8,��
2020/01/16,01:50,0.687,0.977,0.648,1.227,0.860,0.397,0.697,0.664,��,7.1,��
2020/01/16,02:00,0.685,0.977,0.649,1.227,0.860,0.396,0.697,0.663,��,6.6,��
2020/01/16,02:10,0.687,0.976,0.648,1.225,0.860,0.398,0.696,0.662,��,7.1,��
2020/01/16,02:20,0.686,0.976,0.649,1.226,0.858,0.399,0.697,0.661,��,6.6,��
2020/01/16,02:30,0.688,0.978,0.647,1.225,0.859,0.396,0.696,0.663,��,6.6,��
2020/01/16,02:40,0.687,0.977,0.648,1.224,0.861,0.398,0.696,0.663,���쐼,6.3,��
2020/01/16,02:50,0.688,0.979,0.648,1.224,0.861,0.399,0.695,0.662,���쐼,6.7,��
2020/01/16,03:00,0.687,0.978,0.649,1.223,0.860,0.398,0.694,0.662,���쐼,4.9,��
2020/01/16,03:10,0.685,0.977,0.648,1.226,0.861,0.397,0.695,0.663,���쐼,5.0,��
2020/01/16,03:20,0.687,0.978,0.648,1.224,0.859,0.397,0.695,0.663,���쐼,5.6,��
2020/01/16,03:30,0.687,0.978,0.648,1.227,0.859,0.400,0.695,0.663,��,4.9,��
2020/01/16,03:40,0.686,0.978,0.647,1.227,0.859,0.398,0.697,0.663,���k��,4.3,��
2020/01/16,03:50,0.689,0.978,0.648,1.225,0.859,0.397,0.696,0.663,��,4.0,��
2020/01/16,04:00,0.686,0.978,0.648,1.226,0.860,0.397,0.697,0.663,��,3.3,��
2020/01/16,04:10,0.688,0.981,0.648,1.225,0.860,0.397,0.696,0.662,��,3.3,��
2020/01/16,04:20,0.688,0.979,0.648,1.227,0.858,0.398,0.696,0.662,��,3.8,��
2020/01/16,04:30,0.687,0.977,0.647,1.225,0.860,0.397,0.695,0.663,��,4.5,��
2020/01/16,04:40,0.687,0.980,0.648,1.224,0.860,0.396,0.696,0.663,���k��,4.7,��
2020/01/16,04:50,0.687,0.978,0.649,1.227,0.859,0.398,0.696,0.663,���k��,5.0,��
2020/01/16,05:00,0.687,0.976,0.648,1.227,0.858,0.397,0.696,0.663,��,4.3,��
2020/01/16,05:10,0.687,0.978,0.649,1.227,0.860,0.397,0.695,0.663,��,5.2,��
2020/01/16,05:20,0.686,0.977,0.648,1.226,0.860,0.398,0.694,0.662,��,4.3,��
2020/01/16,05:30,0.689,0.977,0.648,1.227,0.857,0.396,0.695,0.662,��,4.1,��
2020/01/16,05:40,0.687,0.978,0.650,1.225,0.858,0.396,0.696,0.663,���쐼,4.5,��
2020/01/16,05:50,0.686,0.977,0.647,1.226,0.860,0.397,0.697,0.664,���쐼,4.7,��
2020/01/16,06:00,0.689,0.979,0.648,1.226,0.859,0.395,0.697,0.663,��,4.7,��
2020/01/16,06:10,0.686,0.976,0.649,1.226,0.858,0.397,0.695,0.663,���쐼,4.7,��
2020/01/16,06:20,0.685,0.976,0.648,1.224,0.860,0.397,0.694,0.663,���쐼,6.3,��
2020/01/16,06:30,0.685,0.976,0.648,1.226,0.860,0.396,0.696,0.664,���쐼,6.6,��
2020/01/16,06:40,0.689,0.976,0.648,1.228,0.859,0.396,0.696,0.663,���쐼,5.6,��
2020/01/16,06:50,0.686,0.978,0.648,1.226,0.860,0.396,0.696,0.661,���쐼,4.5,��
2020/01/16,07:00,0.685,0.977,0.648,1.225,0.857,0.398,0.696,0.663,��,5.0,��
2020/01/16,07:10,0.688,0.977,0.647,1.225,0.858,0.396,0.696,0.662,��,5.8,��
2020/01/16,07:20,0.686,0.978,0.648,1.225,0.858,0.394,0.695,0.663,��,5.5,��
2020/01/16,07:30,0.687,0.976,0.647,1.227,0.859,0.396,0.697,0.665,��,6.0,��
2020/01/16,07:40,0.686,0.977,0.648,1.227,0.857,0.398,0.696,0.664,��,5.5,��
2020/01/16,07:50,0.686,0.975,0.647,1.224,0.861,0.396,0.696,0.661,��,5.8,��
2020/01/16,08:00,0.688,0.977,0.648,1.228,0.858,0.396,0.696,0.664,��,6.1,��
2020/01/16,08:10,0.688,0.976,0.649,1.225,0.858,0.396,0.696,0.664,��,5.3,��
2020/01/16,08:20,0.686,0.977,0.648,1.227,0.861,0.396,0.698,0.664,��,6.0,��
2020/01/16,08:30,0.688,0.978,0.647,1.224,0.859,0.396,0.697,0.664,���k��,5.0,��
2020/01/16,08:40,0.688,0.976,0.647,1.228,0.854,0.396,0.696,0.665,���k��,4.0,��
2020/01/16,08:50,0.691,0.974,0.646,1.227,0.855,0.396,0.696,0.664,���k��,3.4,��
2020/01/16,09:00,0.688,0.977,0.645,1.228,0.850,0.396,0.698,0.663,��,2.7,��
2020/01/16,09:10,0.690,0.977,0.647,1.229,0.852,0.397,0.697,0.663,��,4.4,��
2020/01/16,09:20,0.689,0.977,0.647,1.229,0.853,0.397,0.698,0.664,���쐼,3.9,��
2020/01/16,09:30,0.690,0.977,0.648,1.228,0.850,0.397,0.700,0.664,��,3.8,��
2020/01/16,09:40,0.689,0.977,0.647,1.227,0.839,0.396,0.700,0.664,��,4.5,��
2020/01/16,09:50,0.691,0.977,0.647,1.228,0.832,0.397,0.698,0.665,���쐼,4.3,��
2020/01/16,10:00,0.689,0.978,0.648,1.229,0.833,0.397,0.696,0.665,��,5.3,��
2020/01/16,10:10,0.690,0.977,0.647,1.229,0.840,0.397,0.697,0.664,��,5.5,��
2020/01/16,10:20,0.692,0.977,0.649,1.229,0.836,0.397,0.695,0.663,��,5.5,��
2020/01/16,10:30,0.692,0.976,0.649,1.228,0.836,0.398,0.695,0.664,��,5.5,��
2020/01/16,10:40,0.690,0.978,0.649,1.230,0.836,0.399,0.696,0.665,��,4.4,��
2020/01/16,10:50,0.691,0.977,0.651,1.229,0.839,0.397,0.696,0.664,��,3.8,��
2020/01/16,11:00,0.690,0.980,0.650,1.231,0.841,0.397,0.697,0.665,��,3.9,��
2020/01/16,11:10,0.694,0.978,0.651,1.230,0.840,0.397,0.698,0.664,���쐼,4.9,��
2020/01/16,11:20,0.692,0.978,0.652,1.228,0.842,0.397,0.698,0.666,��,5.5,��
2020/01/16,11:30,0.691,0.978,0.652,1.230,0.836,0.397,0.696,0.666,���k��,4.6,��
2020/01/16,11:40,0.694,0.978,0.652,1.232,0.845,0.398,0.695,0.665,��,5.5,��
2020/01/16,11:50,0.694,0.978,0.653,1.231,0.842,0.399,0.698,0.667,���k��,7.4,��
2020/01/16,12:00,0.693,0.980,0.653,1.230,0.849,0.399,0.696,0.666,���k��,3.8,��
2020/01/16,12:10,0.696,0.980,0.653,1.232,0.847,0.398,0.698,0.667,��,5.0,��
2020/01/16,12:20,0.695,0.984,0.653,1.232,0.850,0.398,0.699,0.665,��,5.5,��
2020/01/16,12:30,0.692,0.986,0.653,1.232,0.854,0.399,0.699,0.664,��,5.2,��
2020/01/16,12:40,0.696,0.984,0.654,1.234,0.855,0.401,0.699,0.665,��,6.7,��
2020/01/16,12:50,0.694,0.986,0.654,1.233,0.856,0.398,0.700,0.665,��,7.2,��
2020/01/16,13:00,0.695,0.987,0.654,1.235,0.854,0.400,0.698,0.666,��,8.9,��
2020/01/16,13:10,0.696,0.987,0.653,1.233,0.855,0.400,0.698,0.666,��,8.2,��
2020/01/16,13:20,0.697,0.985,0.655,1.234,0.853,0.400,0.699,0.667,���쐼,7.7,��
2020/01/16,13:30,0.695,0.985,0.653,1.234,0.844,0.400,0.697,0.666,���쐼,8.3,��
2020/01/16,13:40,0.696,0.985,0.651,1.234,0.841,0.402,0.699,0.664,���쐼,6.6,��
2020/01/16,13:50,0.693,0.984,0.651,1.236,0.845,0.402,0.698,0.663,��,6.4,��
2020/01/16,14:00,0.692,0.983,0.648,1.232,0.844,0.400,0.699,0.664,��,5.8,��
2020/01/16,14:10,0.693,0.983,0.649,1.235,0.836,0.400,0.701,0.663,��,5.5,��
2020/01/16,14:20,0.695,0.982,0.646,1.235,0.846,0.402,0.701,0.663,��,5.0,��
2020/01/16,14:30,0.694,0.982,0.649,1.234,0.842,0.400,0.699,0.663,��,4.5,��
2020/01/16,14:40,0.699,0.984,0.649,1.235,0.846,0.401,0.700,0.665,��,7.1,��
2020/01/16,14:50,0.697,0.984,0.649,1.235,0.843,0.401,0.700,0.664,��,6.9,��
2020/01/16,15:00,0.697,0.984,0.644,1.238,0.840,0.402,0.702,0.665,��,5.2,��
2020/01/16,15:10,0.698,0.985,0.654,1.236,0.842,0.402,0.701,0.667,���쐼,5.3,��
2020/01/16,15:20,0.696,0.987,0.653,1.236,0.842,0.404,0.699,0.667,��,5.0,��
2020/01/16,15:30,0.697,0.987,0.655,1.235,0.834,0.401,0.699,0.666,��,4.6,��
2020/01/16,15:40,0.696,0.987,0.653,1.235,0.836,0.400,0.702,0.664,���쐼,4.0,��
2020/01/16,15:50,0.697,0.987,0.652,1.234,0.844,0.402,0.700,0.667,��,3.1,��
2020/01/16,16:00,0.696,0.990,0.648,1.235,0.843,0.401,0.702,0.667,��,4.4,��
2020/01/16,16:10,0.696,0.989,0.645,1.237,0.839,0.401,0.702,0.666,���쐼,4.1,��
2020/01/16,16:20,0.696,0.991,0.649,1.236,0.824,0.401,0.701,0.665,��,2.4,��
2020/01/16,16:30,0.696,0.989,0.654,1.235,0.839,0.401,0.701,0.666,��,2.2,��
2020/01/16,16:40,0.697,0.989,0.652,1.236,0.839,0.402,0.701,0.668,��,2.4,��
2020/01/16,16:50,0.696,0.988,0.652,1.235,0.842,0.402,0.702,0.665,��,2.6,��
2020/01/16,17:00,0.694,0.992,0.653,1.236,0.847,0.399,0.702,0.666,��,2.5,��
2020/01/16,17:10,0.697,0.991,0.654,1.235,0.844,0.401,0.700,0.667,��,1.3,��
2020/01/16,17:20,0.696,0.989,0.653,1.236,0.853,0.402,0.700,0.665,���k��,2.1,��
2020/01/16,17:30,0.695,0.990,0.653,1.236,0.869,0.401,0.701,0.665,��,3.0,��
2020/01/16,17:40,0.695,0.990,0.653,1.236,0.869,0.402,0.699,0.667,��,5.8,��
2020/01/16,17:50,0.694,0.989,0.653,1.236,0.873,0.400,0.699,0.666,��,7.1,��
2020/01/16,18:00,0.695,0.990,0.653,1.236,0.870,0.402,0.698,0.665,��,6.7,��
2020/01/16,18:10,0.697,0.992,0.653,1.237,0.871,0.400,0.700,0.666,��,6.0,��
2020/01/16,18:20,0.695,0.989,0.655,1.237,0.871,0.401,0.700,0.666,��,6.9,��
2020/01/16,18:30,0.696,0.987,0.656,1.236,0.869,0.400,0.700,0.665,��,7.8,��
2020/01/16,18:40,0.696,0.989,0.654,1.234,0.871,0.401,0.701,0.666,��,8.6,��
2020/01/16,18:50,0.694,0.989,0.655,1.236,0.872,0.400,0.701,0.667,��,8.3,��
2020/01/16,19:00,0.695,0.989,0.654,1.236,0.870,0.399,0.700,0.665,��,8.6,��
2020/01/16,19:10,0.697,0.991,0.653,1.236,0.869,0.401,0.700,0.665,��,10.2,��
2020/01/16,19:20,0.695,0.989,0.654,1.235,0.869,0.400,0.699,0.666,��,9.4,��
2020/01/16,19:30,0.695,0.991,0.656,1.235,0.869,0.401,0.698,0.666,���k��,9.9,��
2020/01/16,19:40,0.697,0.991,0.654,1.236,0.868,0.400,0.702,0.666,���k��,9.6,��
2020/01/16,19:50,0.696,0.990,0.655,1.235,0.873,0.400,0.701,0.667,��,8.3,��
2020/01/16,20:00,0.696,0.992,0.654,1.236,0.870,0.399,0.701,0.668,���k��,7.4,��
2020/01/16,20:10,0.696,0.991,0.653,1.236,0.869,0.400,0.701,0.668,��,7.7,��
2020/01/16,20:20,0.695,0.992,0.654,1.236,0.871,0.399,0.702,0.667,���k��,8.2,��
2020/01/16,20:30,0.694,0.990,0.654,1.235,0.871,0.399,0.699,0.667,���k��,9.1,��
2020/01/16,20:40,0.695,0.989,0.653,1.237,0.871,0.398,0.700,0.667,���k��,8.8,��
2020/01/16,20:50,0.696,0.990,0.652,1.237,0.870,0.400,0.700,0.666,���k��,8.2,��
2020/01/16,21:00,0.696,0.990,0.654,1.239,0.870,0.399,0.699,0.667,��,7.1,��
2020/01/16,21:10,0.696,0.990,0.654,1.238,0.871,0.401,0.700,0.667,��,7.8,��
2020/01/16,21:20,0.695,0.991,0.652,1.235,0.870,0.400,0.702,0.668,���쐼,6.4,��
2020/01/16,21:30,0.693,0.991,0.652,1.237,0.866,0.401,0.700,0.665,��,8.9,��
2020/01/16,21:40,0.695,0.990,0.654,1.239,0.870,0.400,0.701,0.667,��,8.0,��
2020/01/16,21:50,0.695,0.990,0.654,1.237,0.870,0.400,0.700,0.666,��,7.4,��
2020/01/16,22:00,0.694,0.988,0.654,1.235,0.870,0.400,0.700,0.667,��,8.3,��
2020/01/16,22:10,0.694,0.990,0.655,1.237,0.869,0.401,0.701,0.664,��,5.8,��
2020/01/16,22:20,0.694,0.989,0.653,1.238,0.869,0.401,0.700,0.666,��,4.6,��
2020/01/16,22:30,0.694,0.990,0.654,1.236,0.870,0.402,0.699,0.666,��,4.1,��
2020/01/16,22:40,0.696,0.989,0.653,1.237,0.870,0.400,0.700,0.665,��,3.6,��
2020/01/16,22:50,0.696,0.989,0.654,1.238,0.868,0.400,0.701,0.666,��,4.1,��
2020/01/16,23:00,0.697,0.989,0.652,1.235,0.868,0.400,0.700,0.667,��,4.9,��
2020/01/16,23:10,0.695,0.991,0.653,1.238,0.870,0.398,0.698,0.665,��,5.8,��
2020/01/16,23:20,0.694,0.989,0.652,1.238,0.869,0.399,0.701,0.666,��,6.6,��
2020/01/16,23:30,0.693,0.991,0.654,1.237,0.872,0.400,0.700,0.666,��,5.3,��
2020/01/16,23:40,0.694,0.990,0.653,1.237,0.872,0.400,0.701,0.666,��,6.0,��
2020/01/16,23:50,0.694,0.990,0.654,1.239,0.868,0.400,0.701,0.667,��,6.0,��
